This is the latest recevied weather packets stored in our database for station/object KE6YLF. If no packets are shown the sender has not sent any weather packets the latest 10 day(s).
| Time | Temp. | Humidity | Pressure | Rain* | Wind** | Luminosity | Snow |
|---|---|---|---|---|---|---|---|
| 1778308508 | 27.22° C | 28% | 1074.3 hPa | 0 mm | - | - | - |
| 1778308206 | 27.22° C | 28% | 1074.4 hPa | 0 mm | - | - | - |
| 1778307902 | 27.78° C | 27% | 1074.5 hPa | 0 mm | - | - | - |
| 1778307600 | 27.78° C | 27% | 1074.4 hPa | 0 mm | - | - | - |
| 1778307297 | 27.78° C | 27% | 1074.4 hPa | 0 mm | - | - | - |
| 1778306994 | 28.33° C | 26% | 1074.4 hPa | 0 mm | - | - | - |
| 1778306692 | 28.33° C | 26% | 1074.3 hPa | 0 mm | - | - | - |
| 1778306387 | 28.33° C | 26% | 1074.6 hPa | 0 mm | - | - | - |
| 1778306082 | 27.78° C | 27% | 1074.3 hPa | 0 mm | - | - | - |
| 1778305779 | 27.78° C | 27% | 1074.3 hPa | 0 mm | - | - | - |
| 1778305476 | 28.33° C | 26% | 1074.2 hPa | 0 mm | - | - | - |
| 1778305174 | 28.89° C | 26% | 1074.2 hPa | 0 mm | - | - | - |
| 1778304872 | 29.44° C | 25% | 1074.2 hPa | 0 mm | - | - | - |
| 1778304569 | 30.56° C | 24% | 1074.2 hPa | 0 mm | - | - | - |
| 1778304266 | 30° C | 24% | 1074.1 hPa | 0 mm | - | - | - |
| 1778303965 | 30° C | 24% | 1074.3 hPa | 0 mm | - | - | - |
| 1778303662 | 30.56° C | 24% | 1074.2 hPa | 0 mm | - | - | - |
| 1778303359 | 30° C | 24% | 1074.2 hPa | 0 mm | - | - | - |
| 1778303055 | 30° C | 25% | 1074 hPa | 0 mm | - | - | - |
| 1778302752 | 30° C | 25% | 1074.2 hPa | 0 mm | - | - | - |
| 1778302449 | 30° C | 25% | 1074.2 hPa | 0 mm | - | - | - |
| 1778302146 | 29.44° C | 26% | 1074.1 hPa | 0 mm | - | - | - |
| 1778301844 | 29.44° C | 26% | 1074.2 hPa | 0 mm | - | - | - |
| 1778301541 | 30° C | 26% | 1074.2 hPa | 0 mm | - | - | - |
| 1778301236 | 30° C | 26% | 1074.1 hPa | 0 mm | - | - | - |
* Rain latest hour (hover to see other rain measurements)
** Current wind speed in m/s (hover to see current wind gust speed)